Weather in Kanash

Russia / Chuvash Republic     55°30′24″N   47°29′30″E
temp.,
°C
wind,
m/s
gust,
m/s
humid.,
%
clouds,
%
prec.,
mm/h
press.,
hPa
HPBL,
m
14 april, wed
wed1400:00+8s33725 0.0 103024
03:00+7s336928 0.0 103016
06:00+6sse33742 0.0 102933
09:00+13sse47645 0.0 1028262
12:00+17sse57481 0.0 1027703
15:00+18sse67575 0.0 1025932
18:00+15sse48755 0.0 1024233
21:00+12sse49885 0.0 1024161
15 april, thu
thu1500:00+10sse35905 0.0 102378
03:00+9sse33911 0.0 102232
06:00+8sse35900 0.0 102198
09:00+14s34742 0.0 1021403
12:00+17s336172 0.1 10191155
15:00+17sw225769 0.3 1019814
18:00+15nw226971 0.1 101827
21:00+13nnw117479 0.1 101911
16 april, fri
fri1600:00+11n358768 0.0 101994
03:00+9ne61092100 0.0 1020351
06:00+7ne61090100 0.0 1022440
09:00+7ne61085100 0.0 1023520
12:00+11ne786754 0.0 1024863
15:00+10ne786644 0.0 1024845
18:00+9ene6106469 0.0 1025611
21:00+6ne49735 0.0 1026223
17 april, sat
sat1700:00+4ne512715 0.0 1026283
03:00+3ne411725 0.0 1027245
06:00+2ne411704 0.0 1029292
09:00+7ene69483 0.0 1029687
12:00+10ene67375 0.0 10281217
15:00+11ne56355 0.0 10281458
18:00+9ne36500 0.0 1028130
21:00+6ne35650 0.0 102979
18 april, sun
sun1800:00+4ne22670 0.0 102921
03:00+3nne35755 0.0 103069
06:00+3ne37795 0.0 1030163
09:00+8ne56565 0.0 1030701
12:00+11ne454610 0.0 10301488
15:00+12ne564396 0.0 10291955
18:00+9ne5955100 0.0 1030637
21:00+6ene6116757 0.0 1032470